This is the latest recevied weather packets stored in our database for station/object KK4JIV-13. If no packets are shown the sender has not sent any weather packets the latest 1 day(s).
| Time | Temp. | Humidity | Pressure | Rain* | Wind** | Luminosity | Snow |
|---|---|---|---|---|---|---|---|
| 1778033059 | 21.67° C | 72% | 1014.8 hPa | 0 mm | 0 m/s | 0 W/m² | - |
| 1778032756 | 21.67° C | 70% | 1014.8 hPa | 0 mm | 0 m/s | 0 W/m² | - |
| 1778032454 | 22.22° C | 70% | 1014.8 hPa | 0 mm | 0 m/s | 0 W/m² | - |
| 1778032150 | 20.56° C | 75% | 1014.7 hPa | 0 mm | 0.45 m/s, 75° | 0 W/m² | - |
| 1778031847 | 20.56° C | 75% | 1014.6 hPa | 0 mm | 0.45 m/s, 88° | 0 W/m² | - |
| 1778031544 | 20.56° C | 75% | 1014.7 hPa | 0 mm | 0 m/s | 0 W/m² | - |
| 1778031242 | 21.11° C | 73% | 1014.4 hPa | 0 mm | 0 m/s | 0 W/m² | - |
| 1778030937 | 21.67° C | 72% | 1014.4 hPa | 0 mm | 0 m/s | 0 W/m² | - |
| 1778030634 | 21.67° C | 71% | 1014.6 hPa | 0 mm | 0 m/s | 0 W/m² | - |
| 1778030331 | 22.22° C | 69% | 1014.5 hPa | 0 mm | 0 m/s | 0 W/m² | - |
| 1778030028 | 22.22° C | 68% | 1014.5 hPa | 0 mm | 0 m/s | 0 W/m² | - |
| 1778029725 | 22.78° C | 67% | 1014.5 hPa | 0 mm | 0 m/s | 0 W/m² | - |
| 1778029424 | 22.78° C | 66% | 1014.5 hPa | 0 mm | 0 m/s | 0 W/m² | - |
| 1778029120 | 23.33° C | 65% | 1014.4 hPa | 0 mm | 0 m/s | 0 W/m² | - |
| 1778028817 | 23.33° C | 64% | 1014.5 hPa | 0 mm | 0 m/s | 0 W/m² | - |
| 1778028513 | 23.89° C | 63% | 1014.4 hPa | 0 mm | 0 m/s | 0 W/m² | - |
| 1778028211 | 23.89° C | 61% | 1014.3 hPa | 0 mm | 0 m/s | 0 W/m² | - |
| 1778027907 | 24.44° C | 60% | 1014.5 hPa | 0 mm | 0 m/s | 0 W/m² | - |
| 1778027603 | 24.44° C | 60% | 1014.5 hPa | 0 mm | 0 m/s | 0 W/m² | - |
| 1778027299 | 24.44° C | 60% | 1014.4 hPa | 0 mm | 0 m/s | 0 W/m² | - |
| 1778026996 | 25° C | 60% | 1014.2 hPa | 0 mm | 0 m/s | 0 W/m² | - |
| 1778026692 | 25° C | 59% | 1014.4 hPa | 0 mm | 0 m/s | 1 W/m² | - |
| 1778026389 | 25.56° C | 58% | 1014.1 hPa | 0 mm | 0 m/s | 1 W/m² | - |
| 1778026086 | 26.11° C | 57% | 1013.9 hPa | 0 mm | 0 m/s | 3 W/m² | - |
| 1778025784 | 26.11° C | 57% | 1013.9 hPa | 0 mm | 0 m/s | 5 W/m² | - |
* Rain latest hour (hover to see other rain measurements)
** Current wind speed in m/s (hover to see current wind gust speed)